Flag Weather past 2 weeks in Al Khor, Qatar

Now
77 °F

Passing clouds.


Feels Like: 79 °F
Forecast: 71 / 80 °F
Wind: 8 mph from North

Location: Doha International Airport

Current Time: Nov 26, 2014 at 8:50:24 AM

Latest Report: Nov 26, 2014 at 8:00 AM


Visibility: N/A

Pressure: 30.04 "Hg

Humidity: 74%

Dew point: 68 °F

Location of Al KhorLocation

Historic Weather in Al Khor — Graph

°F

Al Khor temperature yesterday

Maximum temperature yesterday: 84 °F (at 11:00 AM)
Minimum temperature yesterday: 77 °F (at 5:00 AM)
Average temperature yesterday: 80 °F

Past Weeks' High & Low Weather Summary

 TemperatureHumidityPressure
High86 °F (Nov 22, 10:30 AM)100% (Nov 24, 4:00 AM)30.18 "Hg (Nov 24, 4:00 AM)
Low70 °F (Nov 12, 4:00 AM)28% (Nov 11, 1:30 PM)29.83 "Hg (Nov 25, 3:00 PM)
Average77 °F61%30.04 "Hg
* Reported Nov 11 7:00 AM — Nov 26 7:00 AM, Al Khor, Weather by CustomWeather, © 2014

Note: Actual official high and low records may vary slightly from our data, if they occured in-between our weather recording intervals... More about our weather records

Advertising

Al Khor weather history for previous 24 hours

 ConditionsComfort  
Time TempWeatherWind HumidityBarometerVisibility
7:00 AM
Nov 26
73 °FPassing clouds.12 mph83%30.01 "HgN/A
6:30 AM73 °FPassing clouds.9 mph89%29.98 "HgN/A
6:00 AM73 °FPassing clouds.12 mph89%29.98 "HgN/A
5:30 AM73 °FPassing clouds.10 mph83%29.98 "HgN/A
5:00 AM75 °FPassing clouds.10 mph78%29.95 "HgN/A
4:00 AM75 °FClear.10 mph74%29.92 "Hg10 mi
3:30 AM75 °FClear.5 mph69%29.92 "Hg10 mi
2:00 AM79 °FPassing clouds.8 mph58%29.92 "HgN/A
1:30 AM79 °FPassing clouds.9 mph54%29.92 "HgN/A
1:00 AM79 °FPassing clouds.3 mph58%29.92 "HgN/A
12:30 AM79 °FPassing clouds.6 mph54%29.95 "HgN/A
12:00 AM79 °FPassing clouds.7 mph58%29.92 "HgN/A
11:00 PM
Nov 25
79 °FPassing clouds.3 mph70%29.92 "HgN/A
10:30 PM79 °FPassing clouds.7 mph79%29.92 "HgN/A
9:30 PM79 °FPassing clouds.8 mph79%29.89 "HgN/A
9:00 PM79 °FClear.12 mph79%29.89 "Hg10 mi
8:00 PM79 °FClear.10 mph74%29.89 "Hg10 mi
7:00 PM79 °FClear.13 mph79%29.89 "Hg10 mi
6:30 PM79 °FClear.13 mph79%29.89 "Hg6 mi
6:00 PM79 °FClear.12 mph79%29.86 "Hg5 mi
5:00 PM79 °FClear.12 mph79%29.86 "Hg5 mi
4:00 PM81 °FSunny.12 mph62%29.86 "Hg10 mi
3:30 PM82 °FSunny.10 mph62%29.86 "Hg10 mi
3:00 PM84 °FSunny.12 mph58%29.83 "Hg10 mi
2:00 PM84 °FSunny.12 mph48%29.86 "Hg10 mi
1:30 PM82 °FSunny.9 mph55%29.89 "Hg10 mi
1:00 PM82 °FSunny.10 mph55%29.89 "Hg10 mi
12:30 PM84 °FPassing clouds.12 mph51%29.89 "HgN/A
12:00 PM84 °FPassing clouds.13 mph48%29.89 "HgN/A
11:30 AM84 °FSunny.12 mph51%29.92 "Hg10 mi
11:00 AM84 °FSunny.15 mph51%29.92 "Hg10 mi
10:30 AM82 °FSunny.15 mph62%29.95 "Hg10 mi
10:00 AM81 °FScattered clouds.14 mph79%29.95 "HgN/A
9:30 AM81 °FBroken clouds.12 mph79%29.98 "HgN/A
9:00 AM81 °FScattered clouds.10 mph79%29.98 "HgN/A
8:30 AM81 °FScattered clouds.12 mph79%29.98 "HgN/A
8:00 AM79 °FScattered clouds.12 mph79%29.95 "HgN/A
Weather by CustomWeather, © 2014

See weather overviewHow to use our weather pages